Regional Weather Roundup
Issued by NWS

Home | Current Version | Previous Version | Graphics & Text | Print | Product List | Glossary On
Versions: 1 2 3 4 5 6 7 8 9 10 11 12 13 14 15 16 17 18 19 20 21 22 23 24 25 26 27 28 29 30 31 32 33 34 35 36 37 38 39 40 41 42 43 44 45 46 47 48 49 50
000
ASUS45 KBOU 201410
RWRCO

WEATHER ROUNDUP FOR COLORADO
NATIONAL WEATHER SERVICE PUEBLO CO
800 AM MDT FRI APR 20 2018

NOTE: "FAIR" INDICATES FEW OR NO CLOUDS BELOW 12000 FEET WITH NO
SIGNIFICANT WEATHER AND/OR OBSTRUCTIONS TO VISIBILITY.

COZ001>005-013-030-031-201500-
...NORTHWEST COLORADO...

CITY           SKY/WX    TMP DP  RH WIND       PRES   REMARKS
CRAIG          LGT RAIN  41  37  86 VRB3      29.90R
HAYDEN         LGT RAIN  38  36  92 SW8       29.92R
MEEKER         LGT RAIN  40  33  76 SW5       29.91R
RABBIT EARS PA NOT AVBL
STEAMBOAT SPGS CLOUDY    38  36  91 CALM      29.89S
WALDEN         PTSUNNY   39  21  48 N10       29.90S
$$

COZ006>008-011-201500-
...WEST CENTRAL VALLEYS...

CITY           SKY/WX    TMP DP  RH WIND       PRES   REMARKS
GRAND JUNCTION CLOUDY    50  31  48 S16       29.83R
MONTROSE       CLOUDY    42  31  64 CALM      29.88S
EAGLE          LGT RAIN  39  36  89 N6        29.91S
RIFLE          CLOUDY    43  37  79 SE9       29.89S
DELTA          NOT AVBL
NUCLA          CLOUDY    43  21  42 SE5       29.91R
$$

COZ017>023-064>068-201500-
...SOUTHWEST COLORADO...

CITY           SKY/WX    TMP DP  RH WIND       PRES   REMARKS
DURANGO        CLOUDY    39  21  48 NE7G18    29.90S
CORTEZ         PTSUNNY   43  12  28 S12       29.91R
PAGOSA SPRINGS LGT SNOW  33  33 100 E3        29.97S
TELLURIDE      LGT SNOW  29  28  97 CALM      29.92R
WOLF CREEK PAS LGT SNOW  18  18 100 MISG      30.00F VSB 1
$$

COZ009-010-012-014-032>034-037-058>063-201500-
...CENTRAL COLORADO...

CITY           SKY/WX    TMP DP  RH WIND       PRES   REMARKS
ASPEN          SNOW      33  32  96 CALM      29.91R VSB 1/2
BUENA VISTA    LGT RAIN  35  33  93 CALM      29.93R
COPPER MTN     NOT AVBL
BERTHOUD PASS  CLOUDY    23  14  68 S33G43    30.00F WCI   5
COTTONWOOD PAS HVY SNOW  36  34  93 E7        29.95R VSB<1/4
GUNNISON       FLURRIES  33  32  96 CALM      29.91S
KREMMLING      CLOUDY    45  32  61 CALM      29.86S
LEADVILLE      HVY SNOW  29  29 100 S9        29.91S VSB 1/4 WCI  20
MONARCH PASS   SNOW      27  25  93 S15G23    30.08R VSB 1/4 WCI  15
SALIDA         CLOUDY    38  33  80 CALM      30.00R
SUNLIGHT       SNOW      23  23 100 W3        30.00R VSB 1/4
WILKERSON PASS PTSUNNY   30  25  80 S6        30.02S WCI  24
$$

COZ069>075-201500-
...SAN LUIS VALLEY/SANGRE DE CRISTO MOUNTAINS...

CITY           SKY/WX    TMP DP  RH WIND       PRES   REMARKS
ALAMOSA        CLOUDY    39  33  79 SW15      29.91R
DEL NORTE      CLOUDY    34  27  77 W24       29.92S WCI  21
LA VETA PASS   MOSUNNY   43  23  45 S17G48    30.04F
SAGUACHE       NOT AVBL
$$

COZ035-036-038>040-201500-
...NORTHERN COLORADO FRONT RANGE...

CITY           SKY/WX    TMP DP  RH WIND       PRES   REMARKS
DENVER INTL AP PTSUNNY   42  25  50 W6        29.92S
DMNS CITY PARK NOT AVBL
AURORA         PTSUNNY   45  23  41 S15G26    29.92F
FRONT RANGE AP PTSUNNY   46  25  42 S16       29.93S
ERIE MUNI ARPT FAIR      42  26  52 NW8       29.99S
BOULDER MUN AP PTSUNNY   41  27  56 N3        29.93S
CENTENNIAL     MOSUNNY   46  24  42 S21G32    29.91F
BROOMFIELD     PTSUNNY   41  25  52 NW15      29.93R
LOVELAND       CLOUDY    40  26  57 MISG      29.95S
LONGMONT       FAIR      46  27  48 N13       29.96R
$$

COZ041-046-047-076>085-087-088-201500-
...PIKES PEAK/PALMER DIVIDE AND SOUTHERN FOOTHILLS...

CITY           SKY/WX    TMP DP  RH WIND       PRES   REMARKS
COLO. SPRINGS  PTSUNNY   41  25  53 SE15      29.98S
A. F. ACADEMY  PTSUNNY   42  22  43 SE18      29.96F
SCHRIEVER AFB  NOT AVBL
CHEYENNE MTN   NOT AVBL
ELLICOTT         N/A    N/A N/A N/A SE29G36   29.96R THUNDER
FALCON         PTSUNNY   38  23  54 SE17G24   29.99F
FORT CARSON    PTSUNNY   43  24  46 E8        29.96R
LIMON          CLOUDY    38  27  64 SE25G37   29.99R
MONUMENT HILL  MOSUNNY   37  23  56 S32G40    29.94S
CANON CITY     FAIR      46  27  46 NE18G26   29.90S
WALSENBURG     PTSUNNY   54  27  35 S23G31    29.88R
TRINIDAD       CLOUDY    47  29  49 SE14G22   29.96R
$$

COZ042>045-048>051-090-091-201500-
...NORTHEAST COLORADO...

CITY           SKY/WX    TMP DP  RH WIND       PRES   REMARKS
GREELEY ARPT   PTSUNNY   43  26  51 E20G25    29.94R
AKRON          CLOUDY    40  28  62 SE28G43   30.03R
BURLINGTON     PTSUNNY   43  29  57 SE31G47   30.08S
WRAY           PTSUNNY   43  30  61 SE18      30.11S
YUMA           NOT AVBL
STERLING       NOT AVBL
HOLYOKE        FAIR      43  30  61 SE20G25   30.13R
FORT MORGAN    FAIR      42  25  51 SE21G26   30.01F
$$

COZ086-089-092>099-201500-
...SOUTHEAST COLORADO...

CITY           SKY/WX    TMP DP  RH WIND       PRES   REMARKS
PUEBLO         PTSUNNY   51  26  37 SE30G44   29.90R
LA JUNTA       CLOUDY    48  28  46 SE25G36   29.99S
LAMAR          CLOUDY    46  26  45 SE23G38   30.04S
SPRINGFIELD      N/A     42  28  57 SE23G32   30.07S
$$




USA.gov is the U.S. government's official web portal to all federal, state and local government web resources and services.